Simultaneous Nadir Overpasses (SNOs) Predictions

Prediction of SNOs between METOP-B and NPP Satellite Orbit:

Table of predicted SNOs for the next 14.0 days since TLE Epoch: 3/21/2020
Index Date (METOP-B) Time (METOP-B) Lat,Lon (METOP-B) SZA (METOP-B ) Date (NPP) Time (NPP) Lat,Lon (NPP) SZA (NPP ) Distance(km) Time Diff (sec)
1 03/21/2020 10:35:20 73.45, 14.63 73.03 03/21/2020 10:34:13 73.44, 11.71 73.19 92.53 67
2 03/21/2020 11:26:03 -73.38,-178.20 107.05 03/21/2020 11:24:55 -73.35, 179.23 106.93 82.12 68
3 03/21/2020 12:16:47 73.18, -11.32 72.76 03/21/2020 12:15:37 73.14, -13.01 72.83 54.56 70
4 03/21/2020 13:07:31 -73.06, 155.76 107.36 03/21/2020 13:06:19 -73.05, 154.50 107.29 40.64 72
5 03/21/2020 13:58:15 72.86, -37.35 72.44 03/21/2020 13:57:01 72.84, -37.74 72.47 12.88 74
6 03/21/2020 14:48:58 -72.79, 129.84 107.63 03/21/2020 14:47:43 -72.76, 129.76 107.64 4.51 75
7 03/21/2020 15:39:38 72.73, -62.94 72.31 03/21/2020 15:38:28 72.75, -62.91 72.34 1.90 70
8 03/21/2020 16:30:19 -72.77, 104.46 107.68 03/21/2020 16:29:12 -72.76, 104.38 107.67 2.87 67
9 03/21/2020 17:20:59 72.76, -88.22 72.31 03/21/2020 17:19:58 72.75, -88.30 72.31 2.85 61
10 03/21/2020 18:11:41 -72.75, 79.08 107.73 03/21/2020 18:10:42 -72.77, 78.99 107.69 3.33 59
11 03/21/2020 19:02:21 72.74,-113.60 72.26 03/21/2020 19:01:28 72.76,-113.68 72.29 2.99 53
12 03/21/2020 19:53:03 -72.73, 53.70 107.77 03/21/2020 19:52:11 -72.72, 53.71 107.77 1.24 52
13 03/21/2020 20:43:43 72.72,-138.98 72.22 03/21/2020 20:42:57 72.71,-138.96 72.21 1.64 46
14 03/21/2020 21:34:25 -72.71, 28.31 107.82 03/21/2020 21:33:41 -72.72, 28.33 107.79 1.72 44
15 03/21/2020 22:25:05 72.70,-164.36 72.17 03/21/2020 22:24:27 72.72,-164.34 72.19 1.49 38
16 03/21/2020 23:15:46 -72.74, 3.04 107.82 03/21/2020 23:15:11 -72.73, 2.95 107.82 3.25 35
17 03/22/2020 00:06:26 72.73, 170.36 72.17 03/22/2020 00:05:57 72.72, 170.27 72.17 3.24 29
18 03/22/2020 00:57:08 -72.72, -22.34 107.86 03/22/2020 00:56:41 -72.73, -22.44 107.84 3.39 27
19 03/22/2020 01:47:48 72.71, 144.98 72.12 03/22/2020 01:47:27 72.72, 144.89 72.14 3.11 21
20 03/22/2020 02:38:30 -72.70, -47.73 107.91 03/22/2020 02:38:10 -72.69, -47.72 107.92 1.48 20
21 03/22/2020 03:29:10 72.69, 119.60 72.08 03/22/2020 03:28:56 72.68, 119.61 72.06 1.82 14
22 03/22/2020 04:19:52 -72.68, -73.11 107.96 03/22/2020 04:19:40 -72.69, -73.10 107.94 1.31 12
23 03/22/2020 05:10:32 72.67, 94.21 72.03 03/22/2020 05:10:26 72.68, 94.23 72.04 1.08 6
24 03/22/2020 06:01:13 -72.71, -98.38 107.96 03/22/2020 06:01:10 -72.70, -98.48 107.96 3.66 3
25 03/22/2020 06:51:53 72.70, 68.94 72.03 03/22/2020 06:51:56 72.69, 68.84 72.02 3.65 3
26 03/22/2020 07:42:35 -72.69,-123.77 108.00 03/22/2020 07:42:40 -72.70,-123.87 107.99 3.53 5
27 03/22/2020 08:33:15 72.68, 43.56 71.98 03/22/2020 08:33:26 72.69, 43.46 71.99 3.30 11
28 03/22/2020 09:23:57 -72.67,-149.15 108.05 03/22/2020 09:24:09 -72.65,-149.15 108.07 1.79 12
29 03/22/2020 10:14:37 72.66, 18.17 71.94 03/22/2020 10:14:55 72.64, 18.18 71.92 2.07 18
30 03/22/2020 11:05:19 -72.65,-174.53 108.09 03/22/2020 11:05:39 -72.66,-174.53 108.09 0.94 20
31 03/22/2020 11:55:59 72.64, -7.21 71.89 03/22/2020 11:56:25 72.65, -7.20 71.89 0.70 26
32 03/22/2020 12:46:41 -72.63, 160.09 108.14 03/22/2020 12:47:09 -72.66, 160.09 108.11 3.67 28
33 03/22/2020 13:37:21 72.62, -32.59 71.85 03/22/2020 13:37:55 72.65, -32.59 71.87 3.45 34
34 03/22/2020 14:28:03 -72.61, 134.71 108.19 03/22/2020 14:28:38 -72.62, 134.81 108.19 3.30 35
35 03/22/2020 15:18:43 72.60, -57.97 71.80 03/22/2020 15:19:24 72.61, -57.87 71.79 3.45 41
36 03/22/2020 16:09:24 -72.64, 109.43 108.19 03/22/2020 16:10:08 -72.62, 109.42 108.21 2.16 44
37 03/22/2020 17:00:04 72.63, -83.25 71.80 03/22/2020 17:00:54 72.61, -83.25 71.77 2.37 50
38 03/22/2020 17:50:46 -72.62, 84.05 108.23 03/22/2020 17:51:38 -72.62, 84.04 108.24 0.71 52
39 03/22/2020 18:41:26 72.61,-108.63 71.75 03/22/2020 18:42:24 72.62,-108.63 71.74 0.44 58
40 03/22/2020 19:32:08 -72.60, 58.67 108.28 03/22/2020 19:33:08 -72.63, 58.66 108.26 3.36 60
41 03/22/2020 20:22:48 72.59,-134.01 71.71 03/22/2020 20:23:54 72.62,-134.02 71.72 3.16 66
42 03/22/2020 21:13:30 -72.58, 33.29 108.32 03/22/2020 21:14:37 -72.58, 33.38 108.34 2.91 67
43 03/22/2020 22:04:10 72.57,-159.39 71.66 03/22/2020 22:05:23 72.57,-159.30 71.64 3.07 73
44 03/22/2020 22:54:53 -72.51, 7.81 108.41 03/22/2020 22:56:06 -72.54, 8.10 108.42 10.16 73
45 03/22/2020 23:45:37 72.30, 174.72 71.39 03/22/2020 23:46:48 72.32, 175.83 71.34 37.56 71
46 03/23/2020 00:36:20 -72.23, -18.08 108.68 03/23/2020 00:37:31 -72.29, -16.78 108.72 44.29 71
47 03/23/2020 01:27:05 71.97, 148.75 71.08 03/23/2020 01:28:12 72.02, 151.04 70.98 78.93 67
48 03/23/2020 02:17:48 -71.90, -44.04 109.00 03/23/2020 02:18:55 -71.99, -41.57 109.07 85.45 67




NCC Satellite Simultaneous Nadir Overpasses (SNOs) Prediction Service
